When you browse on this site, cookies collect data to enhance your experience and personalize the content and advertising you see.
Visit our Privacy Policy to learn more. By continuing to use the site, you agree to this use of cookies and data.
  • In Latvia
  • List of Countries
  • For 7 days
  • Water Temperature
  • Weather Map
  • Weather Widgets
  • user-avatar
    Login

    Hourly Weather Szekszard

    Today, 20 February, Thursday

    Time Temperature Precipitation Wind Pressure Humidity
    00:00 +5°C° 0.1 mm 5 mps 757 mmHg 74%
    01:00 +3°C° 0.1 mm 5 mps 757 mmHg 73%
    02:00 +3°C° 0 mm 5 mps 758 mmHg 72%
    03:00 +3°C° 0 mm 5 mps 758 mmHg 71%
    04:00 +2°C° 0 mm 5 mps 758 mmHg 69%
    05:00 +2°C° 0 mm 5 mps 758 mmHg 71%
    06:00 +1°C° 0 mm 4 mps 758 mmHg 73%
    07:00 +1°C° 0 mm 4 mps 758 mmHg 74%
    08:00 +2°C° 0 mm 5 mps 759 mmHg 69%
    09:00 +3°C° 0 mm 6 mps 759 mmHg 63%
    10:00 +4°C° 0 mm 6 mps 760 mmHg 58%
    11:00 +5°C° 0 mm 6 mps 760 mmHg 55%
    12:00 +7°C° 0 mm 6 mps 759 mmHg 52%
    13:00 +7°C° 0 mm 6 mps 759 mmHg 50%
    14:00 +7°C° 0 mm 5 mps 759 mmHg 49%
    15:00 +7°C° 0 mm 5 mps 759 mmHg 49%
    16:00 +7°C° 0 mm 4 mps 758 mmHg 49%
    17:00 +7°C° 0 mm 3 mps 758 mmHg 54%
    18:00 +6°C° 0 mm 2 mps 758 mmHg 58%
    19:00 +5°C° 0 mm 2 mps 759 mmHg 63%
    20:00 +6°C° 0 mm 1 mps 758 mmHg 64%
    21:00 +5°C° 0 mm 1 mps 758 mmHg 64%
    22:00 +5°C° 0 mm 1 mps 758 mmHg 65%
    23:00 +5°C° 0 mm 1 mps 758 mmHg 66%

    Tomorrow, 21 February, Friday

    Time Temperature Precipitation Wind Pressure Humidity
    00:00 +5°C° 0 mm 1 mps 758 mmHg 67%
    01:00 +4°C° 0 mm 1 mps 758 mmHg 68%
    02:00 +3°C° 0 mm 2 mps 758 mmHg 70%
    03:00 +3°C° 0 mm 2 mps 758 mmHg 71%
    04:00 +3°C° 0 mm 2 mps 758 mmHg 73%
    05:00 +3°C° 0 mm 2 mps 758 mmHg 72%
    06:00 +2°C° 0 mm 2 mps 758 mmHg 72%
    07:00 +2°C° 0 mm 2 mps 758 mmHg 71%
    14:00 +7°C° 0 mm 8 mps 760 mmHg 42%
    15:00 +8°C° 0 mm 7 mps 760 mmHg 41%
    16:00 +6°C° 0 mm 7 mps 761 mmHg 40%
    17:00 +5°C° 0 mm 6 mps 761 mmHg 45%
    18:00 +5°C° 0 mm 5 mps 762 mmHg 50%
    19:00 +4°C° 0 mm 4 mps 763 mmHg 55%
    20:00 +3°C° 0 mm 4 mps 763 mmHg 58%
    21:00 +3°C° 0 mm 4 mps 763 mmHg 60%
    22:00 +3°C° 0 mm 4 mps 764 mmHg 63%
    23:00 +2°C° 0 mm 3 mps 764 mmHg 65%

    Day after tomorrow, 22 February, Saturday

    Time Temperature Precipitation Wind Pressure Humidity
    00:00 +2°C° 0 mm 3 mps 764 mmHg 68%
    01:00 +1°C° 0 mm 3 mps 764 mmHg 70%
    02:00 +1°C° 0 mm 3 mps 764 mmHg 71%
    03:00 +2°C° 0 mm 2 mps 764 mmHg 72%
    04:00 +2°C° 0 mm 2 mps 764 mmHg 73%
    05:00 +1°C° 0 mm 2 mps 764 mmHg 74%
    06:00 +1°C° 0 mm 2 mps 765 mmHg 75%
    07:00 +1°C° 0 mm 2 mps 765 mmHg 76%
    08:00 +3°C° 0 mm 2 mps 765 mmHg 70%
    09:00 +4°C° 0 mm 2 mps 765 mmHg 63%
    10:00 +6°C° 0 mm 2 mps 765 mmHg 57%
    11:00 +7°C° 0 mm 2 mps 765 mmHg 54%
    12:00 +8°C° 0 mm 3 mps 765 mmHg 50%
    13:00 +9°C° 0 mm 3 mps 764 mmHg 47%
    14:00 +9°C° 0 mm 3 mps 764 mmHg 48%
    15:00 +8°C° 0 mm 4 mps 763 mmHg 49%
    16:00 +8°C° 0 mm 4 mps 763 mmHg 49%
    17:00 +7°C° 0 mm 4 mps 762 mmHg 54%
    18:00 +6°C° 0 mm 4 mps 762 mmHg 59%
    19:00 +5°C° 0 mm 4 mps 762 mmHg 63%
    20:00 +5°C° 0 mm 4 mps 762 mmHg 63%
    21:00 +4°C° 0 mm 4 mps 762 mmHg 64%
    22:00 +4°C° 0 mm 3 mps 761 mmHg 64%
    23:00 +4°C° 0 mm 3 mps 761 mmHg 63%

    23 February, Sunday

    Time Temperature Precipitation Wind Pressure Humidity
    00:00 +4°C° 0 mm 3 mps 761 mmHg 62%
    01:00 +4°C° 0 mm 3 mps 761 mmHg 61%
    02:00 +4°C° 0 mm 3 mps 760 mmHg 62%
    03:00 +4°C° 0 mm 3 mps 760 mmHg 63%
    04:00 +5°C° 0 mm 2 mps 760 mmHg 65%
    05:00 +5°C° 0 mm 2 mps 760 mmHg 66%
    06:00 +5°C° 0 mm 2 mps 760 mmHg 67%
    07:00 +5°C° 0 mm 2 mps 760 mmHg 68%
    08:00 +6°C° 0 mm 2 mps 760 mmHg 65%
    09:00 +7°C° 0 mm 2 mps 760 mmHg 62%
    10:00 +9°C° 0 mm 2 mps 760 mmHg 60%
    11:00 +9°C° 0 mm 2 mps 759 mmHg 57%
    12:00 +10°C° 0 mm 2 mps 759 mmHg 55%
    13:00 +12°C° 0 mm 2 mps 758 mmHg 52%
    14:00 +11°C° 0 mm 3 mps 758 mmHg 53%
    15:00 +11°C° 0 mm 3 mps 757 mmHg 54%
    16:00 +11°C° 0 mm 3 mps 756 mmHg 55%
    17:00 +10°C° 0 mm 3 mps 756 mmHg 58%
    18:00 +9°C° 0 mm 3 mps 755 mmHg 60%
    19:00 +9°C° 0 mm 3 mps 755 mmHg 63%
    20:00 +8°C° 0 mm 4 mps 754 mmHg 63%
    21:00 +8°C° 0 mm 5 mps 754 mmHg 64%
    22:00 +8°C° 0 mm 6 mps 754 mmHg 65%
    23:00 +8°C° 0 mm 7 mps 753 mmHg 65%

    24 February, Monday

    Time Temperature Precipitation Wind Pressure Humidity
    00:00 +7°C° 0 mm 8 mps 752 mmHg 66%
    01:00 +7°C° 0 mm 9 mps 751 mmHg 67%
    02:00 +7°C° 0 mm 9 mps 751 mmHg 69%
    03:00 +7°C° 0 mm 8 mps 751 mmHg 71%
    04:00 +7°C° 0 mm 8 mps 751 mmHg 73%
    05:00 +7°C° 0.7 mm 9 mps 753 mmHg 70%
    06:00 +6°C° 0.7 mm 9 mps 755 mmHg 67%
    07:00 +6°C° 0.7 mm 10 mps 756 mmHg 64%
    08:00 +6°C° 0 mm 10 mps 758 mmHg 59%
    09:00 +6°C° 0 mm 10 mps 759 mmHg 53%
    10:00 +6°C° 0 mm 10 mps 760 mmHg 47%
    11:00 +6°C° 0 mm 10 mps 761 mmHg 47%
    12:00 +7°C° 0 mm 9 mps 761 mmHg 47%
    13:00 +7°C° 0 mm 8 mps 761 mmHg 46%
    14:00 +7°C° 0 mm 8 mps 761 mmHg 47%
    15:00 +8°C° 0 mm 7 mps 761 mmHg 48%
    16:00 +8°C° 0 mm 7 mps 761 mmHg 49%
    17:00 +7°C° 0 mm 5 mps 761 mmHg 53%
    18:00 +6°C° 0 mm 4 mps 762 mmHg 58%
    19:00 +5°C° 0 mm 3 mps 762 mmHg 62%
    20:00 +5°C° 0 mm 2 mps 762 mmHg 64%
    21:00 +5°C° 0 mm 2 mps 762 mmHg 66%
    22:00 +5°C° 0 mm 1 mps 763 mmHg 67%
    23:00 +5°C° 0 mm 1 mps 762 mmHg 68%

    25 February, Tuesday

    Time Temperature Precipitation Wind Pressure Humidity
    00:00 +5°C° 0 mm 1 mps 762 mmHg 69%
    01:00 +5°C° 0 mm 1 mps 762 mmHg 69%
    02:00 +4°C° 0 mm 1 mps 762 mmHg 70%
    03:00 +4°C° 0 mm 1 mps 761 mmHg 70%
    04:00 +3°C° 0 mm 2 mps 761 mmHg 71%
    05:00 +3°C° 0 mm 2 mps 760 mmHg 72%
    06:00 +3°C° 0 mm 2 mps 760 mmHg 72%
    07:00 +2°C° 0 mm 3 mps 760 mmHg 73%
    08:00 +3°C° 0 mm 3 mps 759 mmHg 65%
    09:00 +5°C° 0 mm 4 mps 759 mmHg 57%
    10:00 +7°C° 0 mm 5 mps 758 mmHg 49%
    11:00 +8°C° 0 mm 5 mps 758 mmHg 45%
    12:00 +9°C° 0 mm 5 mps 757 mmHg 41%
    13:00 +12°C° 0 mm 5 mps 756 mmHg 37%
    14:00 +10°C° 0 mm 5 mps 755 mmHg 37%
    15:00 +10°C° 0 mm 5 mps 754 mmHg 38%
    16:00 +10°C° 0 mm 5 mps 754 mmHg 39%
    17:00 +10°C° 0 mm 4 mps 753 mmHg 44%
    18:00 +9°C° 0 mm 3 mps 753 mmHg 49%
    19:00 +7°C° 0 mm 3 mps 753 mmHg 54%
    20:00 +7°C° 0 mm 3 mps 753 mmHg 55%
    21:00 +7°C° 0 mm 3 mps 752 mmHg 55%
    22:00 +5°C° 0 mm 3 mps 752 mmHg 56%
    23:00 +5°C° 0 mm 3 mps 752 mmHg 58%
    Show more